DELTA 1 DEB, 7024

Orbit data source: Space-Track

DELTA 1 DEB, 7024 is space debris in SSO originally from a launch on Tue, 06 Nov 1973 UTC launched from the Air Force Western Test Range (AFWTR). Debris objects in space refer to the collection of defunct objects orbiting the Earth. Examples of debris include non-operational satellites, rocket bodies, and fragments generated from explosions, collisions, or faulty payload assembly.

Loading next visibility...
Identifier
7024, 1973-086Q
Orbit
SSO
Country
Flag of USUS
Related business
Manufacturer
Unknown
Mission
Spacecraft
Bus & Motor
Unknown
Mass
Unknown
Launch date (UTC)
1973-11-06 (52 years ago)
Launch vehicle
Unknown
Launch site
Air Force Western Test Range (AFWTR)
Object type
Payload
Rocket body
Debris
Shape & HBR
Unknown shape, 0.1 m
Radar Cross Section
Medium (>0.1 m² and <1 m²)

Expand to show TLE details & history
Last TLE update: 1 day ago

TLE from 1 day ago
0 DELTA 1 DEB
1 07024U 73086Q   26121.75848722  .00002336  00000-0  10739-1 0  9997
2 07024 101.8699 194.4768 0054750 338.6289 146.1374 12.77749223425537
Epoch: 2026-05-01T18:12Z
TLE epoch observation values (Epoch: 2026-05-01T18:12:13.295Z)
Latitude
53.27534°
Longitude
-101.98438°
Altitude
1,394.251 km
Speed
7.151 km/s
True Right ascension
02h 03m 01s
True Declination
53° 07' 26"
Sunlit
Object was in daylight at epoch
Visualization orbit readout
Latitude
Unknown
Longitude
Unknown
Altitude
Unknown
Speed
Unknown
Apparent Right ascension
Unknown
Apparent Declination
Unknown
Sunlit
N/A
Visualization observer readout
Local Sidereal Time
10:22:35
Azimuth
Unknown
Elevation
Unknown
Doppler factor
Unknown
Orbital elements
Apogee altitude
1,390.351 km
Perigee altitude
1,305.75 km
Semi-major axis
7,726.188 km
Eccentricity
0.00548
Inclination
101.8699°
RAAN
194.4768°
Arg. of periapsis
338.6289°
True anomaly
146.48501°
Mean anomaly
146.1374°
Eccentric anomaly
146.3114°
Mean motion
3.19592 °/min
Orbital period
112.64 mins
BSTAR
0.010739
Loading maneuver chart data...
Computing Atmospheric mass density...
Loading historical data...
Loading historical data...
Loading historical data...
Loading historical data...
Loading historical data...
Loading historical data...
Loading historical data...

Documentation

Showing up to 5 results
|